Flag for Gambia Weather past 2 weeks in Serekunda, Gambia

Now
81 °F

Scattered clouds.


Feels Like: 85 °F
Forecast: 80 / 86 °F
Wind: No wind

Location: Banjul / Yundum

Current Time: Jun 30, 2015 at 8:44:06 AM

Latest Report: Jun 30, 2015 at 8:00 AM


Visibility: N/A

Pressure: 29.92 "Hg

Humidity: 79%

Dew point: 73 °F

Location of SerekundaLocation

Historic Weather in Serekunda — Graph

°F

Serekunda temperature yesterday

Maximum temperature yesterday: 93 °F (at 3:00 PM)
Minimum temperature yesterday: 75 °F (at 2:00 AM)
Average temperature yesterday: 82 °F

Past Weeks' High & Low Weather Summary

 TemperatureHumidityPressure
High93 °F (Jun 23, 12:00 PM)94% (Jun 16, 3:00 AM)30.07 "Hg (Jun 16, 3:00 AM)
Low75 °F (Jun 19, 1:00 AM)37% (Jun 24, 7:00 PM)28.23 "Hg (Jun 24, 8:00 PM)
Average83 °F72%29.91 "Hg
* Reported Jun 15 7:00 AM — Jun 30 7:00 AM, Serekunda, Weather by CustomWeather, © 2015

Note: Actual official high and low records may vary slightly from our data, if they occured in-between our weather recording intervals... More about our weather records

Advertising

Serekunda weather history for previous 24 hours

 ConditionsComfort  
Time TempWeatherWind HumidityBarometerVisibility
7:00 AM
Tue, Jun 30
79 °FScattered clouds.No wind84%29.92 "HgN/A
6:00 AM79 °FClear.No wind84%29.92 "Hg10 mi
5:00 AM81 °FClear.No wind79%29.89 "Hg10 mi
4:00 AM81 °FClear.No wind79%29.92 "Hg10 mi
3:00 AM81 °FClear.No wind79%29.89 "Hg10 mi
2:00 AM81 °FClear.No wind79%29.89 "Hg10 mi
1:00 AM81 °FClear.No wind79%29.89 "Hg10 mi
12:00 AM81 °FPassing clouds.9 mph74%29.95 "HgN/A
11:00 PM
Mon, Jun 29
81 °FPassing clouds.12 mph79%29.92 "HgN/A
10:00 PM81 °FPassing clouds.12 mph74%29.92 "HgN/A
8:00 PM82 °FPassing clouds.17 mph70%29.92 "HgN/A
7:00 PM82 °FScattered clouds.22 mph70%29.89 "HgN/A
6:00 PM84 °FBroken clouds.20 mph66%29.92 "HgN/A
5:00 PM88 °FScattered clouds.12 mph55%29.92 "HgN/A
3:00 PM93 °FScattered clouds.14 mph44%29.92 "HgN/A
2:00 PM91 °FScattered clouds.7 mph46%29.92 "HgN/A
1:00 PM91 °FSunny.7 mph49%29.89 "Hg10 mi
12:00 PM90 °FSunny.9 mph55%29.92 "Hg10 mi
11:00 AM88 °FSunny.6 mph59%29.92 "Hg10 mi
10:00 AM84 °FSunny.10 mph62%29.92 "Hg10 mi
9:00 AM75 °FScattered clouds.8 mph78%29.92 "HgN/A
8:00 AM79 °FSunny.9 mph74%29.92 "Hg10 mi
Weather by CustomWeather, © 2015

See weather overviewHow to use our weather pages